Date String (YYYY-MM-DD hh:mm:ss) UTC,Instrument flags,absolute air pressure of the measurement (hPa),sample flow rate (lpm),inlet stack bypass flow (lpm),air temperature of the measurement (°C),ambient temperature measured by the external sensor (°C),aerosol sample conditioner tube jacket temperature (°C),OPC LED temperature (°C),internal box temperature (°C),relative humidity of the measurement (%),span deviation,mass concentration of particles derived from Lorenz-Mie calculation of OPC scattering (μg/m³),mass concentration of particles derived from Lorenz-Mie calculation of OPC scattering (μg/m³),mass concentration of particles derived from Lorenz-Mie calculation of OPC scattering (μg/m³)
DateTimeUTC,F1_M11,P_M11,Q1_M11,Q2_M11,T1_M11,T2_M11,T3_M11,T4_M11,T5_M11,U1_M11,ZSPAN_M11,X2_M11,X0_M11,X1_M11
2024-02-08 04:00:00,SystemResetWarning,0810.5,5.01,000.00,019.1,018.5,000.0,027.4,020.7,12.3,0000.0,0000.30,0000.57,0000.23
2024-02-08 04:01:00,SystemResetWarning,0810.5,5.00,000.00,019.1,018.5,000.0,027.4,020.7,12.2,0000.0,0000.31,0000.59,0000.23
2024-02-08 04:02:00,SystemResetWarning,0810.5,5.01,000.00,019.1,018.5,000.0,027.4,020.6,12.6,0000.0,0000.30,0000.57,0000.23
2024-02-08 04:03:00,SystemResetWarning,0810.5,5.00,000.00,019.1,018.4,000.0,027.4,020.6,13.2,0000.0,0000.31,0000.63,0000.22
2024-02-08 04:04:00,SystemResetWarning,0810.6,5.00,000.00,019.1,018.4,000.0,027.4,020.6,12.9,0000.0,0000.30,0000.58,0000.22
2024-02-08 04:05:00,SystemResetWarning,0810.6,5.00,000.00,019.1,018.4,000.0,027.4,020.6,12.3,0000.0,0000.28,0000.53,0000.22
2024-02-08 04:06:00,SystemResetWarning,0810.6,4.99,000.00,019.1,018.4,000.0,027.4,020.6,12.5,0000.0,0000.28,0000.53,0000.21
2024-02-08 04:07:00,SystemResetWarning,0810.6,5.00,000.00,019.1,018.4,000.0,027.4,020.6,12.4,0000.0,0000.28,0000.57,0000.21
2024-02-08 04:08:00,SystemResetWarning,0810.6,4.99,000.00,019.1,018.4,000.0,027.4,020.6,12.7,0000.0,0000.29,0000.70,0000.20
2024-02-08 04:09:00,SystemResetWarning,0810.5,4.99,000.00,019.1,018.4,000.0,027.3,020.6,12.2,0000.0,0000.31,0000.74,0000.20
2024-02-08 04:10:00,SystemResetWarning,0810.5,5.01,000.00,019.1,018.4,000.0,027.3,020.6,12.1,0000.0,0000.31,0000.71,0000.20
2024-02-08 04:11:00,SystemResetWarning,0810.6,5.01,000.00,019.1,018.4,000.0,027.3,020.6,12.1,0000.0,0000.31,0000.65,0000.20
2024-02-08 04:12:00,SystemResetWarning,0810.5,5.00,000.00,019.1,018.4,000.0,027.3,020.6,12.2,0000.0,0000.30,0000.62,0000.19
2024-02-08 04:13:00,SystemResetWarning,0810.5,5.00,000.00,019.1,018.4,000.0,027.3,020.6,12.3,0000.0,0000.29,0000.60,0000.19
2024-02-08 04:14:00,SystemResetWarning,0810.5,5.00,000.00,019.1,018.4,000.0,027.3,020.5,12.5,0000.0,0000.29,0000.58,0000.18
2024-02-08 04:15:00,SystemResetWarning,0810.6,4.99,000.00,019.1,018.4,000.0,027.3,020.5,12.3,0000.0,0000.29,0000.58,0000.18
2024-02-08 04:16:00,SystemResetWarning,0810.6,5.00,000.00,019.0,018.4,000.0,027.3,020.5,12.6,0000.0,0000.29,0000.59,0000.18
2024-02-08 04:17:00,SystemResetWarning,0810.6,5.01,000.00,019.0,018.4,000.0,027.3,020.6,12.4,0000.0,0000.30,0000.64,0000.18
2024-02-08 04:18:00,SystemResetWarning,0810.6,5.01,000.00,019.0,018.4,000.0,027.3,020.5,12.2,0000.0,0000.33,0000.70,0000.18
2024-02-08 04:19:00,SystemResetWarning,0810.5,5.01,000.00,019.0,018.4,000.0,027.3,020.6,12.5,0000.0,0000.31,0000.56,0000.18
2024-02-08 04:20:00,SystemResetWarning,0810.5,5.00,000.00,019.0,018.4,000.0,027.3,020.6,12.6,0000.0,0000.28,0000.51,0000.17
2024-02-08 04:21:00,SystemResetWarning,0810.6,5.00,000.00,019.0,018.4,000.0,027.3,020.6,12.5,0000.0,0000.31,0000.56,0000.18
2024-02-08 04:22:00,SystemResetWarning,0810.6,5.00,000.00,019.0,018.4,000.0,027.3,020.6,12.2,0000.0,0000.30,0000.55,0000.18
2024-02-08 04:23:00,SystemResetWarning,0810.6,5.00,000.00,019.0,018.4,000.0,027.3,020.6,12.4,0000.0,0000.33,0000.65,0000.18
2024-02-08 04:24:00,SystemResetWarning,0810.5,5.00,000.00,019.0,018.4,000.0,027.3,020.5,12.1,0000.0,0000.34,0000.69,0000.19
2024-02-08 04:25:00,SystemResetWarning,0810.6,5.00,000.00,019.0,018.4,000.0,027.3,020.6,12.2,0000.0,0000.34,0000.68,0000.19
2024-02-08 04:26:00,SystemResetWarning,0810.6,5.00,000.00,019.0,018.4,000.0,027.3,020.6,12.2,0000.0,0000.33,0000.68,0000.19
2024-02-08 04:27:00,SystemResetWarning,0810.6,5.00,000.00,019.0,018.4,000.0,027.3,020.6,12.5,0000.0,0000.34,0000.69,0000.19
2024-02-08 04:28:00,SystemResetWarning,0810.6,5.00,000.00,019.0,018.4,000.0,027.3,020.6,12.4,0000.0,0000.34,0000.67,0000.20
2024-02-08 04:29:00,SystemResetWarning,0810.7,5.00,000.00,019.0,018.4,000.0,027.3,020.5,12.2,0000.0,0000.31,0000.65,0000.19
2024-02-08 04:30:00,SystemResetWarning,0810.6,5.00,000.00,019.0,018.4,000.0,027.3,020.6,12.2,0000.0,0000.33,0000.72,0000.20
2024-02-08 04:31:00,SystemResetWarning,0810.6,5.00,000.00,019.0,018.4,000.0,027.3,020.6,12.5,0000.0,0000.33,0000.73,0000.20
2024-02-08 04:32:00,SystemResetWarning,0810.7,5.00,000.00,019.0,018.4,000.0,027.3,020.6,12.6,0000.0,0000.31,0000.69,0000.20
2024-02-08 04:33:00,SystemResetWarning,0810.7,5.00,000.00,019.0,018.4,000.0,027.3,020.6,12.6,0000.0,0000.31,0000.69,0000.20
2024-02-08 04:34:00,SystemResetWarning,0810.6,5.00,000.00,019.0,018.4,000.0,027.3,020.5,12.6,0000.0,0000.31,0000.64,0000.20
2024-02-08 04:35:00,SystemResetWarning,0810.6,4.99,000.00,019.0,018.4,000.0,027.3,020.6,12.7,0000.0,0000.33,0000.63,0000.19
2024-02-08 04:36:00,SystemResetWarning,0810.6,5.00,000.00,019.0,018.4,000.0,027.3,020.6,12.7,0000.0,0000.33,0000.63,0000.19
2024-02-08 04:37:00,SystemResetWarning,0810.6,5.00,000.00,019.0,018.4,000.0,027.3,020.6,12.8,0000.0,0000.35,0000.69,0000.20
2024-02-08 04:38:00,SystemResetWarning,0810.6,5.00,000.00,019.0,018.4,000.0,027.3,020.6,12.6,0000.0,0000.36,0000.71,0000.19
2024-02-08 04:39:00,SystemResetWarning,0810.6,5.00,000.00,019.0,018.4,000.0,027.3,020.6,12.3,0000.0,0000.34,0000.67,0000.19
2024-02-08 04:40:00,SystemResetWarning,0810.6,5.00,000.00,019.0,018.4,000.0,027.3,020.5,12.4,0000.0,0000.34,0000.63,0000.19
2024-02-08 04:41:00,SystemResetWarning,0810.5,5.00,000.00,019.0,018.4,000.0,027.3,020.6,12.5,0000.0,0000.33,0000.56,0000.19
2024-02-08 04:42:00,SystemResetWarning,0810.5,5.00,000.00,019.0,018.4,000.0,027.3,020.6,12.6,0000.0,0000.33,0000.56,0000.19
2024-02-08 04:43:00,SystemResetWarning,0810.5,5.00,000.00,019.0,018.4,000.0,027.3,020.6,12.1,0000.0,0000.33,0000.55,0000.19
2024-02-08 04:44:00,SystemResetWarning,0810.5,5.00,000.00,019.0,018.4,000.0,027.3,020.6,12.3,0000.0,0000.33,0000.54,0000.19
2024-02-08 04:45:00,SystemResetWarning,0810.5,5.01,000.00,019.0,018.4,000.0,027.3,020.6,12.2,0000.0,0000.31,0000.52,0000.18
2024-02-08 04:46:00,SystemResetWarning,0810.5,5.00,000.00,019.0,018.4,000.0,027.3,020.5,12.7,0000.0,0000.27,0000.45,0000.18
2024-02-08 04:47:00,SystemResetWarning,0810.5,4.99,000.00,019.0,018.4,000.0,027.3,020.5,12.8,0000.0,0000.25,0000.40,0000.17
2024-02-08 04:48:00,SystemResetWarning,0810.5,4.99,000.00,019.0,018.4,000.0,027.3,020.5,13.1,0000.0,0000.22,0000.47,0000.17
2024-02-08 04:49:00,SystemResetWarning,0810.6,5.00,000.00,019.0,018.4,000.0,027.3,020.5,13.0,0000.0,0000.23,0000.91,0000.17
2024-02-08 04:50:00,SystemResetWarning,0810.6,5.01,000.00,019.0,018.4,000.0,027.3,020.5,12.9,0000.0,0000.23,0001.29,0000.17
2024-02-08 04:51:00,SystemResetWarning,0810.6,5.00,000.00,019.0,018.4,000.0,027.3,020.5,12.7,0000.0,0000.24,0001.45,0000.16
2024-02-08 04:52:00,SystemResetWarning,0810.6,4.98,000.00,019.0,018.4,000.0,027.3,020.5,12.6,0000.0,0000.23,0001.41,0000.16
2024-02-08 04:53:00,SystemResetWarning,0810.6,5.00,000.00,019.0,018.4,000.0,027.3,020.5,12.8,0000.0,0000.23,0001.40,0000.16
2024-02-08 04:54:00,SystemResetWarning,0810.6,5.02,000.00,019.0,018.4,000.0,027.3,020.5,12.3,0000.0,0000.24,0001.41,0000.17
2024-02-08 04:55:00,SystemResetWarning,0810.5,4.98,000.00,019.0,018.4,000.0,027.3,020.5,12.3,0000.0,0000.22,0001.39,0000.17
2024-02-08 04:56:00,SystemResetWarning,0810.6,5.00,000.00,019.0,018.3,000.0,027.3,020.5,12.5,0000.0,0000.23,0001.99,0000.17
2024-02-08 04:57:00,SystemResetWarning,0810.6,5.01,000.00,019.0,018.3,000.0,027.3,020.5,12.4,0000.0,0000.23,0002.80,0000.18
2024-02-08 04:58:00,SystemResetWarning,0810.5,4.99,000.00,019.0,018.3,000.0,027.3,020.5,12.3,0000.0,0000.24,0003.15,0000.18
2024-02-08 04:59:00,SystemResetWarning,0810.5,5.00,000.00,019.0,018.3,000.0,027.3,020.5,12.1,0000.0,0000.24,0003.07,0000.18
